| time (UTC) | temp F | wind direction | speed MPH | gust MPH | rain 1hr in | rain 24hr in | rain mn in | humidity % | barometer mb |
| 20260505124549 | 62 | 224 | 1.0 | 0.0 | 0.00 | 0.00 | 0.00 | 58 | 1019.9 |
| 20260505123111 | 61 | 143 | 1.0 | 0.0 | 0.00 | 0.00 | 0.00 | 58 | 1019.9 |
| 20260505121501 | 60 | 66 | 1.0 | 0.0 | 0.00 | 0.00 | 0.00 | 59 | 1019.7 |
| 20260505120054 | 59 | 281 | 1.0 | 0.0 | 0.00 | 0.00 | 0.00 | 60 | 1019.7 |
| 20260505114604 | 59 | 74 | 1.0 | 0.0 | 0.00 | 0.00 | 0.00 | 60 | 1019.7 |
| 20260505113006 | 58 | 170 | 1.0 | 0.0 | 0.00 | 0.00 | 0.00 | 60 | 1019.6 |
| 20260505111514 | 57 | 127 | 1.0 | 0.0 | 0.00 | 0.00 | 0.00 | 61 | 1019.5 |
| 20260505101513 | 57 | 177 | 0.0 | 0.0 | 0.00 | 0.00 | 0.00 | 60 | 1019.0 |
| 20260505100110 | 57 | 68 | 1.0 | 0.0 | 0.00 | 0.00 | 0.00 | 60 | 1018.7 |
| 20260505094506 | 57 | 96 | 1.0 | 0.0 | 0.00 | 0.00 | 0.00 | 60 | 1018.6 |
| 20260505093018 | 57 | 95 | 1.0 | 0.0 | 0.00 | 0.00 | 0.00 | 59 | 1018.5 |
| 20260505091533 | 57 | 312 | 0.0 | 0.0 | 0.00 | 0.00 | 0.00 | 59 | 1018.4 |
| 20260505090017 | 58 | 309 | 0.0 | 0.0 | 0.00 | 0.00 | 0.00 | 58 | 1018.3 |
| 20260505084526 | 58 | 299 | 0.0 | 0.0 | 0.00 | 0.00 | 0.00 | 57 | 1018.3 |
| 20260505083035 | 58 | 300 | 0.0 | 0.0 | 0.00 | 0.00 | 0.00 | 56 | 1018.3 |
| 20260505081548 | 59 | 299 | 0.0 | 0.0 | 0.00 | 0.00 | 0.00 | 56 | 1018.2 |
| 20260505080045 | 59 | 298 | 0.0 | 0.0 | 0.00 | 0.00 | 0.00 | 55 | 1018.1 |
| 20260505074537 | 59 | 298 | 0.0 | 0.0 | 0.00 | 0.00 | 0.00 | 55 | 1017.9 |
| 20260505073055 | 60 | 299 | 0.0 | 0.0 | 0.00 | 0.00 | 0.00 | 54 | 1017.9 |
| 20260505071556 | 60 | 298 | 0.0 | 0.0 | 0.00 | 0.00 | 0.00 | 54 | 1017.9 |
| 20260505070049 | 60 | 229 | 0.0 | 0.0 | 0.00 | 0.00 | 0.00 | 53 | 1017.8 |
| 20260505064551 | 61 | 228 | 0.0 | 0.0 | 0.00 | 0.00 | 0.00 | 53 | 1017.8 |
| 20260505063105 | 61 | 281 | 0.0 | 0.0 | 0.00 | 0.00 | 0.00 | 52 | 1017.9 |
| 20260505061510 | 61 | 186 | 0.0 | 0.0 | 0.00 | 0.00 | 0.00 | 52 | 1018.0 |
| 20260505060048 | 62 | 199 | 0.0 | 0.0 | 0.00 | 0.00 | 0.00 | 51 | 1018.0 |
| 20260505054601 | 62 | 225 | 1.0 | 0.0 | 0.00 | 0.00 | 0.00 | 51 | 1018.1 |
| 20260505053009 | 62 | 279 | 1.0 | 0.0 | 0.00 | 0.00 | 0.00 | 50 | 1018.2 |
| 20260505051520 | 63 | 94 | 1.0 | 0.0 | 0.00 | 0.00 | 0.00 | 50 | 1018.2 |
| 20260505050129 | 63 | 62 | 1.0 | 0.0 | 0.00 | 0.00 | 0.00 | 50 | 1018.3 |
| 20260505041546 | 63 | 53 | 1.0 | 0.0 | 0.00 | 0.00 | 0.00 | 49 | 1018.1 |
| 20260505040020 | 64 | 82 | 0.0 | 0.0 | 0.00 | 0.00 | 0.00 | 49 | 1018.1 |
| 20260505034530 | 64 | 140 | 2.0 | 0.0 | 0.00 | 0.00 | 0.00 | 49 | 1018.0 |
| 20260505033045 | 64 | 49 | 1.0 | 0.0 | 0.00 | 0.00 | 0.00 | 49 | 1017.8 |
| 20260505031547 | 65 | 123 | 2.0 | 0.0 | 0.00 | 0.00 | 0.00 | 48 | 1018.1 |
| 20260505030024 | 65 | 265 | 1.0 | 0.0 | 0.00 | 0.00 | 0.00 | 48 | 1017.9 |
| 20260505024529 | 65 | 212 | 2.0 | 0.0 | 0.00 | 0.00 | 0.00 | 48 | 1018.1 |
| 20260505023044 | 65 | 87 | 1.0 | 0.0 | 0.00 | 0.00 | 0.00 | 49 | 1017.8 |
| 20260505021546 | 66 | 223 | 2.0 | 0.0 | 0.00 | 0.00 | 0.00 | 49 | 1017.9 |
| 20260505020029 | 66 | 115 | 2.0 | 0.0 | 0.00 | 0.00 | 0.00 | 48 | 1017.9 |
| 20260505014600 | 67 | 105 | 1.0 | 0.0 | 0.00 | 0.00 | 0.00 | 48 | 1017.7 |
| 20260505013052 | 67 | 60 | 2.0 | 0.0 | 0.00 | 0.00 | 0.00 | 48 | 1017.6 |
| 20260505011605 | 67 | 248 | 1.0 | 0.0 | 0.00 | 0.00 | 0.00 | 47 | 1017.3 |
| 20260505010044 | 68 | 178 | 1.0 | 0.0 | 0.00 | 0.00 | 0.00 | 47 | 1017.1 |
| 20260505004552 | 69 | 191 | 1.0 | 0.0 | 0.00 | 0.00 | 0.00 | 46 | 1016.9 |
| 20260505003106 | 69 | 115 | 2.0 | 0.0 | 0.00 | 0.00 | 0.00 | 45 | 1016.9 |
| 20260505001501 | 70 | 201 | 1.0 | 0.0 | 0.00 | 0.00 | 0.00 | 43 | 1016.6 |
| 20260505000117 | 71 | 175 | 2.0 | 0.0 | 0.00 | 0.00 | 0.00 | 42 | 1016.6 |
| 20260504234615 | 72 | 182 | 2.0 | 0.0 | 0.00 | 0.00 | 0.00 | 41 | 1016.3 |
| 20260504233006 | 73 | 211 | 1.0 | 0.0 | 0.00 | 0.00 | 0.00 | 38 | 1016.2 |
| 20260504231515 | 74 | 245 | 2.0 | 0.0 | 0.00 | 0.00 | 0.00 | 36 | 1016.0 |
| 20260504230105 | 76 | 190 | 3.0 | 0.0 | 0.00 | 0.00 | 0.00 | 33 | 1015.7 |
| 20260504224502 | 77 | 253 | 2.0 | 0.0 | 0.00 | 0.00 | 0.00 | 23 | 1015.6 |
| 20260504223010 | 79 | 103 | 2.0 | 0.0 | 0.00 | 0.00 | 0.00 | 22 | 1015.5 |
| 20260504221521 | 79 | 190 | 2.0 | 0.0 | 0.00 | 0.00 | 0.00 | 22 | 1015.5 |
| 20260504220008 | 80 | 153 | 1.0 | 0.0 | 0.00 | 0.00 | 0.00 | 22 | 1015.6 |
| 20260504214516 | 80 | 355 | 1.0 | 0.0 | 0.00 | 0.00 | 0.00 | 22 | 1015.6 |
| 20260504213045 | 81 | 211 | 2.0 | 0.0 | 0.00 | 0.00 | 0.00 | 21 | 1015.6 |
| 20260504211534 | 81 | 141 | 2.0 | 0.0 | 0.00 | 0.00 | 0.00 | 19 | 1015.6 |
| 20260504210018 | 82 | 146 | 2.0 | 0.0 | 0.00 | 0.00 | 0.00 | 20 | 1015.6 |
| 20260504204527 | 83 | 193 | 2.0 | 0.0 | 0.00 | 0.00 | 0.00 | 20 | 1015.7 |
| 20260504203037 | 83 | 238 | 2.0 | 0.0 | 0.00 | 0.00 | 0.00 | 20 | 1015.8 |
| 20260504201547 | 83 | 212 | 2.0 | 0.0 | 0.00 | 0.00 | 0.00 | 19 | 1015.9 |
| 20260504200033 | 83 | 180 | 2.0 | 0.0 | 0.00 | 0.00 | 0.00 | 18 | 1016.0 |
| 20260504194555 | 83 | 170 | 2.0 | 0.0 | 0.00 | 0.00 | 0.00 | 21 | 1016.2 |
| 20260504193059 | 83 | 181 | 2.0 | 0.0 | 0.00 | 0.00 | 0.00 | 19 | 1016.5 |
| 20260504191557 | 82 | 245 | 3.0 | 0.0 | 0.00 | 0.00 | 0.00 | 20 | 1016.5 |
| 20260504190043 | 83 | 82 | 2.0 | 0.0 | 0.00 | 0.00 | 0.00 | 21 | 1017.0 |
| 20260504184559 | 82 | 207 | 3.0 | 0.0 | 0.00 | 0.00 | 0.00 | 22 | 1017.0 |
| 20260504183059 | 82 | 280 | 2.0 | 0.0 | 0.00 | 0.00 | 0.00 | 21 | 1017.3 |
| 20260504181503 | 81 | 273 | 3.0 | 0.0 | 0.00 | 0.00 | 0.00 | 22 | 1017.3 |
| 20260504180055 | 81 | 55 | 2.0 | 0.0 | 0.00 | 0.00 | 0.00 | 24 | 1017.7 |
| 20260504174502 | 81 | 126 | 2.0 | 0.0 | 0.00 | 0.00 | 0.00 | 24 | 1017.8 |
| 20260504173013 | 81 | 138 | 2.0 | 0.0 | 0.00 | 0.00 | 0.00 | 23 | 1017.8 |
| 20260504171521 | 81 | 261 | 2.0 | 0.0 | 0.00 | 0.00 | 0.00 | 25 | 1017.9 |